Latest Coastal Weather Observations for Alva Beach

IDQ60701

Issued at 2:21 pm EST Tuesday 26 May 2020 (issued every 10 minutes, with the page automatically refreshed every 10 minutes)

About coastal observations | Map of coastal stations | Coastal observations for QLD | Marine services | Other Formats
Station Details ID: 033295 Name: ALVA BEACH Lat: -19.46 Lon: 147.48 Height: 7.5 m
Data from the previous 72 hours. | See also: Recent months at Alva Beach
Date/Time
EST
Wind Sea
Height
m
Swell Vis
km
Cloud Weather Temp
°C
Press
hPa
Rain since
9am
mm
Dir  Spd
kts
Gust
kts
Height
m
Period
s
Dir
26/02:00pm E 7 10 - - - - - - - 22.0 1018.1 0.0
26/01:30pm ESE 6 8 - - - - - - - 22.4 1018.3 0.0
26/01:00pm E 7 10 - - - - - - - 22.0 1018.6 0.0
26/12:30pm ESE 7 9 - - - - - - - 22.6 1019.1 0.0
26/12:00pm E 6 9 - - - - - - - 22.4 1019.6 0.0
26/11:30am ESE 5 9 - - - - - - - 22.5 1019.9 0.0
26/11:00am ESE 5 8 - - - - - - - 22.2 1020.3 0.0
26/10:30am S 6 8 - - - - - - - 20.9 1020.4 0.0
26/10:00am S 5 9 - - - - - - - 20.2 1020.5 0.0
26/09:30am SW 5 8 - - - - - - - 18.8 1020.5 0.0
26/09:00am SW 5 7 - - - - - - - 17.4 1020.4 0.0
26/08:30am SSW 6 8 - - - - - - - 15.5 1020.2 0.0
26/08:00am SW 5 8 - - - - - - - 13.6 1019.9 0.0
26/07:30am SW 5 8 - - - - - - - 12.2 1019.5 0.0
26/07:00am SW 6 7 - - - - - - - 10.9 1019.4 0.0
26/06:30am SW 6 7 - - - - - - - 10.5 1019.1 0.0
26/06:00am SW 5 7 - - - - - - - 10.5 1018.9 0.0
26/05:30am SW 5 7 - - - - - - - 10.8 1018.6 0.0
26/05:00am SSW 5 7 - - - - - - - 10.9 1018.4 0.0
26/04:30am SW 6 7 - - - - - - - 11.0 1018.3 0.0
26/04:00am SW 6 7 - - - - - - - 11.0 1018.3 0.0
26/03:30am SSW 6 7 - - - - - - - 11.1 1017.9 0.0
26/03:00am SSW 6 7 - - - - - - - 11.7 1018.1 0.0
26/02:30am SSW 5 6 - - - - - - - 11.7 1018.2 0.0
26/02:00am SSW 6 8 - - - - - - - 11.7 1018.3 0.0
26/01:30am SSW 6 8 - - - - - - - 11.8 1018.4 0.0
26/01:00am SSW 6 7 - - - - - - - 12.1 1018.7 0.0
26/12:30am SSW 5 6 - - - - - - - 12.7 1018.7 0.0
26/12:00am SW 5 6 - - - - - - - 13.0 1019.0 0.0
 
Date/Time
EST
Wind Sea
Height
m
Swell Vis
km
Cloud Weather Temp
°C
Press
hPa
Rain since
9am
mm
Dir  Spd
kts
Gust
kts
Height
m
Period
s
Dir
25/11:30pm SW 4 5 - - - - - - - 13.6 1019.0 0.0
25/11:00pm SW 4 5 - - - - - - - 14.0 1019.1 0.0
25/10:30pm SW 4 5 - - - - - - - 14.1 1019.2 0.0
25/10:00pm SW 5 5 - - - - - - - 14.3 1019.3 0.0
25/09:30pm WSW 4 5 - - - - - - - 14.5 1019.3 0.0
25/09:00pm WSW 5 6 - - - - - - - 14.8 1019.2 0.0
25/08:30pm W 5 6 - - - - - - - 15.0 1019.0 0.0
25/08:00pm SW 3 4 - - - - - - - 15.0 1018.4 0.0
25/07:30pm NE 4 6 - - - - - - - 16.2 1017.9 0.0
25/07:00pm NE 4 5 - - - - - - - 16.0 1017.6 0.0
25/06:30pm NE 5 8 - - - - - - - 16.3 1017.2 0.0
25/06:00pm NE 5 6 - - - - - - - 17.0 1016.8 0.0
25/05:30pm NE 4 6 - - - - - - - 17.9 1016.6 0.0
25/05:00pm NE 5 7 - - - - - - - 19.5 1016.5 0.0
25/04:30pm NE 7 8 - - - - - - - 20.2 1016.4 0.0
25/04:00pm NE 7 9 - - - - - - - 20.6 1016.1 0.0
25/03:30pm ENE 7 9 - - - - - - - 21.1 1016.2 0.0
25/03:00pm ENE 8 11 - - - - - - - 21.1 1016.2 0.0
25/02:30pm ENE 7 10 - - - - - - - 21.2 1016.5 0.0
25/02:00pm ENE 8 10 - - - - - - - 21.5 1016.7 0.0
25/01:30pm E 7 10 - - - - - - - 21.3 1017.2 0.0
25/01:00pm E 7 9 - - - - - - - 21.0 1017.7 0.0
25/12:30pm E 7 9 - - - - - - - 20.8 1018.2 0.0
25/12:00pm ESE 6 9 - - - - - - - 21.2 1018.4 0.0
25/11:30am S 6 9 - - - - - - - 21.1 1018.6 0.0
25/11:00am SSW 6 10 - - - - - - - 20.2 1018.9 0.0
25/10:30am SSW 7 12 - - - - - - - 19.5 1019.1 0.0
25/10:00am SSW 8 13 - - - - - - - 18.7 1019.3 0.0
25/09:30am SW 6 10 - - - - - - - 17.2 1019.2 0.0
25/09:00am SW 5 9 - - - - - - - 16.1 1019.2 0.0
25/08:30am SW 5 9 - - - - - - - 14.6 1019.0 0.0
25/08:00am SW 5 9 - - - - - - - 12.9 1018.6 0.0
25/07:30am WSW 5 7 - - - - - - - 11.0 1018.5 0.0
25/07:00am WSW 4 6 - - - - - - - 9.4 1018.5 0.0
25/06:30am WSW 4 6 - - - - - - - 8.8 1018.1 0.0
25/06:00am SW 4 6 - - - - - - - 8.9 1017.6 0.0
25/05:30am SW 5 6 - - - - - - - 9.5 1017.2 0.0
25/05:00am SW 5 7 - - - - - - - 9.5 1017.1 0.0
25/04:30am SW 5 7 - - - - - - - 9.4 1017.0 0.0
25/04:00am SW 4 6 - - - - - - - 9.2 1017.1 0.0
25/03:30am SW 5 8 - - - - - - - 9.2 1017.1 0.0
25/03:00am WSW 4 5 - - - - - - - 9.3 1017.3 0.0
25/02:30am WSW 5 5 - - - - - - - 9.6 1017.3 0.0
25/02:00am WSW 3 4 - - - - - - - 9.7 1017.3 0.0
25/01:30am SW 4 5 - - - - - - - 10.3 1017.4 0.0
25/01:00am SW 4 5 - - - - - - - 10.3 1017.4 0.0
25/12:30am WSW 4 5 - - - - - - - 10.2 1017.3 0.0
25/12:00am SW 4 6 - - - - - - - 11.5 1017.6 0.0
 
Date/Time
EST
Wind Sea
Height
m
Swell Vis
km
Cloud Weather Temp
°C
Press
hPa
Rain since
9am
mm
Dir  Spd
kts
Gust
kts
Height
m
Period
s
Dir
24/11:30pm SW 5 7 - - - - - - - 11.4 1017.6 0.0
24/11:00pm SW 3 4 - - - - - - - 11.7 1017.7 0.0
24/10:30pm SSW 4 6 - - - - - - - 12.3 1017.7 0.0
24/10:00pm S 3 4 - - - - - - - 12.1 1017.9 0.0
24/09:30pm SSW 5 7 - - - - - - - 12.4 1017.6 0.0
24/09:00pm SSW 3 5 - - - - - - - 12.6 1017.7 0.0
24/08:30pm S 4 5 - - - - - - - 12.8 1017.4 0.0
24/08:00pm S 4 6 - - - - - - - 13.2 1017.2 0.0
24/07:30pm S 1 4 - - - - - - - 13.2 1016.7 0.0
24/07:00pm SSW 4 5 - - - - - - - 14.0 1016.4 0.0
24/06:30pm SSW 5 8 - - - - - - - 14.7 1016.0 0.0
24/06:00pm SSW 4 6 - - - - - - - 15.4 1015.7 0.0
24/05:30pm SW 7 10 - - - - - - - 17.2 1015.2 0.0
24/05:00pm SW 7 11 - - - - - - - 18.5 1015.0 0.0
24/04:30pm SW 9 14 - - - - - - - 19.7 1014.7 0.0
24/04:00pm SW 9 15 - - - - - - - 20.5 1014.1 0.0
24/03:30pm SW 8 14 - - - - - - - 21.1 1014.0 0.0
24/03:00pm SW 9 17 - - - - - - - 21.0 1013.9 0.0
24/02:30pm SSW 10 16 - - - - - - - 21.0 1014.4 0.0
24/02:00pm SW 10 14 - - - - - - - 20.6 1014.8 0.0
24/01:30pm SW 9 16 - - - - - - - 20.3 1014.9 0.0
24/01:00pm SSW 10 16 - - - - - - - 19.7 1015.4 0.0
24/12:30pm SSW 11 20 - - - - - - - 19.3 1015.9 0.0
24/12:00pm SSW 11 20 - - - - - - - 19.0 1016.4 0.0
24/11:30am SSW 12 22 - - - - - - - 18.4 1016.7 0.0
24/11:00am SSW 10 19 - - - - - - - 18.0 1017.2 0.0
24/10:30am SSW 11 16 - - - - - - - 16.6 1017.8 0.0
24/10:00am SW 7 13 - - - - - - - 16.0 1018.5 0.0
24/09:30am SW 6 10 - - - - - - - 15.3 1019.0 0.0
24/09:00am SW 6 12 - - - - - - - 14.7 1018.3 22.2
24/08:30am SW 6 8 - - - - - - - 13.4 1018.0 22.2
24/08:00am SW 5 8 - - - - - - - 12.2 1017.6 22.2
24/07:30am SW 7 12 - - - - - - - 11.1 1017.6 22.2
24/07:00am SW 7 12 - - - - - - - 10.3 1017.0 22.2
24/06:30am SW 9 15 - - - - - - - 10.3 1016.6 22.2
24/06:00am SW 6 9 - - - - - - - 10.3 1016.2 22.2
24/05:30am SSW 5 11 - - - - - - - 10.9 1015.6 22.2
24/05:00am SW 6 12 - - - - - - - 11.2 1015.3 22.2
24/04:37am SW 7 12 - - - - - - - 11.3 1014.0 22.2
24/04:30am WSW 7 10 - - - - - - - 11.3 1016.2 22.2
24/04:00am SW 7 13 - - - - - - - 11.4 1015.5 22.2
24/03:30am SW 7 14 - - - - - - - 11.3 1014.6 22.2
24/03:00am SW 7 13 - - - - - - - 11.2 1014.5 22.2
24/02:30am SW 6 9 - - - - - - - 11.0 1015.0 22.2
24/02:00am SW 6 9 - - - - - - - 10.9 1016.3 22.2
24/01:30am SW 5 9 - - - - - - - 10.9 1016.0 22.2
24/01:00am SW 4 9 - - - - - - - 11.3 1015.4 22.2
24/12:30am SW 8 12 - - - - - - - 11.3 1015.9 22.2
24/12:00am SW 5 8 - - - - - - - 11.5 1015.8 22.0
 
Date/Time
EST
Wind Sea
Height
m
Swell Vis
km
Cloud Weather Temp
°C
Press
hPa
Rain since
9am
mm
Dir  Spd
kts
Gust
kts
Height
m
Period
s
Dir
23/11:30pm SW 4 7 - - - - - - - 11.5 1016.8 22.0
23/11:00pm SW 6 11 - - - - - - - 11.5 1016.5 22.0
23/10:30pm SW 5 8 - - - - - - - 11.6 1017.5 22.0
23/10:00pm SW 6 9 - - - - - - - 11.7 1016.8 22.0
23/09:30pm SW 7 11 - - - - - - - 11.8 1017.1 22.0
23/09:00pm SW 7 13 - - - - - - - 11.8 1016.3 22.0
23/08:56pm SW 8 13 - - - - - - - 11.9 1017.3 22.0
23/08:30pm SW 7 11 - - - - - - - 11.9 1015.3 22.0
23/08:00pm SW 7 12 - - - - - - - 12.2 1016.9 22.0
23/07:30pm SSW 5 7 - - - - - - - 12.1 1015.4 22.0
23/07:00pm WSW 6 10 - - - - - - - 12.4 1016.8 22.0
23/06:30pm SW 5 7 - - - - - - - 12.5 1015.7 21.8
23/06:00pm SW 7 13 - - - - - - Recent precip. 12.3 1015.5 20.6
23/05:30pm SW 6 11 - - - - - - - 12.2 1014.4 20.4
23/05:00pm SSW 8 12 - - - - - - - 12.2 1014.5 19.6
23/04:30pm SSW 7 12 - - - - - - - 12.6 1015.0 19.0
23/04:00pm SW 6 9 - - - - - - - 12.8 1015.5 18.0
23/03:30pm SW 6 11 - - - - - - - 12.8 1014.8 16.6
23/03:00pm SW 8 12 - - - - - - Rain 12.8 1014.3 15.0
23/02:30pm SW 7 13 - - - - - - - 12.8 1015.0 13.8

Other formats

Comma delimited format used in spreadsheet applications
http://www.bom.gov.au/fwo/IDQ60701/IDQ60701.95296.axf

JavaScript Object Notation format (JSON) in row-major order
http://www.bom.gov.au/fwo/IDQ60701/IDQ60701.95296.json

Data quality

Most of these data are generated automatically and are frequently updated. Quality checks on data are not normally performed. It is possible for incorrect values to appear. Refer to information at About Latest Weather Observations and please check the disclaimer before using these data.